Location: Cheadle
(51.0146°N, 113.5417°W)
Time: 10:58:24
(UTC+00:00)

ISS - Visible Passes

Search period start: 20 April 2024 00:00
Search period end: 30 April 2024 00:00
Orbit: 412 x 418 km, 51.6° (Epoch: 20 April)

Date Brightness Start Highest point End Pass type
(mag) Time Alt. Az. Time Alt. Az. Time Alt. Az.
22 Apr -1.2 11:17:12 10° SSE 11:18:38 12° SE 11:20:05 10° ESE visible
24 Apr -2.1 11:14:20 11° SSW 11:17:00 24° SE 11:19:47 10° E visible
25 Apr -1.7 10:27:07 15° SSE 10:28:07 17° SE 10:30:22 10° E visible
26 Apr -1.1 09:39:48 11° SE 09:39:48 11° SE 09:40:17 10° ESE visible
26 Apr -3.2 11:12:38 14° SW 11:15:18 45° SSE 11:18:31 10° E visible
27 Apr -2.7 10:25:14 26° S 10:26:14 32° SSE 10:29:16 10° E visible
28 Apr -2.0 09:37:44 21° SE 09:37:44 21° SE 09:39:51 10° E visible
28 Apr -3.8 11:10:34 13° WSW 11:13:31 75° SSE 11:16:51 10° ENE visible
29 Apr -3.6 10:22:59 31° SW 10:24:17 57° SSE 10:27:34 10° E visible
